Regional Weather Roundup
Issued by NWS

Home | Current Version | Previous Version | Text Only | Print | Product List | Glossary On
Versions: 1 2 3 4 5 6 7 8 9 10 11 12 13 14 15 16 17 18 19 20 21 22 23 24 25 26 27 28 29 30 31 32 33 34 35 36 37 38 39 40 41 42 43 44 45 46 47 48 49 50
000
ASUS44 KMEG 010210
RWRTN
TENNESSEE HOURLY STATE WEATHER ROUNDUP
NATIONAL WEATHER SERVICE MEMPHIS TN
900 PM CDT TUE JUN 30 2015

TNZ002-004-019-021-049-052-054-088>092-010300-
WEST TENNESSEE

CITY           SKY/WX    TMP DP  RH WIND       PRES   REMARKS
MEMPHIS INTL   PTCLDY    78  71  79 SW6       29.96R
NWS MEMPHIS      N/A     77 N/A N/A MISG        N/A
JACKSON        CLEAR     76  71  85 S6        29.94R
DYERSBURG        N/A    N/A N/A N/A MISG        N/A
PARIS          CLEAR     72  68  88 CALM      29.93R
LEXINGTON      CLEAR     73  72  94 CALM      29.95R
$$

TNZ008-025-027-028-033-062-065-066-010300-
NORTH MIDDLE TENNESSEE

CITY           SKY/WX    TMP DP  RH WIND       PRES   REMARKS
NASHVILLE      CLOUDY    77  70  79 SW6       29.94R
CLARKSVILLE    CLEAR     76  70  82 SW3       29.91R
SMYRNA         CLEAR     76  70  82 SW3       29.96R
COOKEVILLE     CLEAR     73  73 100 SW5       29.97R
CROSSVILLE     LGT RAIN  71  66  84 SW3       30.01R
$$

TNZ061-075-076-078-094-096-097-010300-
SOUTH MIDDLE TENNESSEE

CITY           SKY/WX    TMP DP  RH WIND       PRES   REMARKS
FAYETTEVILLE   CLEAR     73  68  83 SW3       30.01R
TULLAHOMA      PTCLDY    73  68  83 SW5       30.01R
WINCHESTER     CLEAR     75  70  83 SW5       30.01R
MCMINNVILLE    CLEAR     75  70  83 SW3       29.99R
COLUMBIA       CLEAR     75  73  94 S3        29.96R
SHELBYVILLE    CLEAR     75  72  88 S5        29.98R
$$

TNZ017-018-042-046-047-010300-
NORTHEAST TENNESSEE

CITY           SKY/WX    TMP DP  RH WIND       PRES   REMARKS
TRI CITIES     CLOUDY    72  63  73 W6        29.99R
ELIZABETHTON   PTCLDY    64  63  94 NW3       30.00R
$$

TNZ012-013-036-069-073-074-010300-
CENTRAL EAST TENNESSEE

CITY           SKY/WX    TMP DP  RH WIND       PRES   REMARKS
KNOXVILLE      CLOUDY    70  63  78 W6        29.96R
OAK RIDGE      MOCLDY    72  67  84 VRB3      29.97R
GATLINBURG     PTCLDY    70  68  94 CALM      29.96R
MORRISTOWN     CLEAR     72  66  83 W5        29.99R
$$

TNZ083-085-099-010300-
SOUTHEAST TENNESSEE

CITY           SKY/WX    TMP DP  RH WIND       PRES   REMARKS
CHATTANOOGA    CLOUDY    79  68  69 SW6       29.98R
$$

SKY/WX REPORTED AS FAIR MEANS FEW OR NO CLOUDS BELOW
12 THOUSAND FEET.



USA.gov is the U.S. government's official web portal to all federal, state and local government web resources and services.